TimePDT,TemperatureF,Dew PointF,Humidity,Sea Level PressureIn,VisibilityMPH,Wind Direction,Wind SpeedMPH,Gust SpeedMPH,PrecipitationIn,Events,Conditions,WindDirDegrees,DateUTC
12:53 AM,37.0,30.0,76,30.00,10.0,WSW,17.3,-,N/A,,Mostly Cloudy,240,2013-03-21 07:53:00
1:53 AM,36.0,24.1,62,30.02,10.0,WSW,17.3,-,N/A,,Partly Cloudy,250,2013-03-21 08:53:00
2:53 AM,35.1,23.0,61,30.04,10.0,WSW,15.0,-,N/A,,Clear,240,2013-03-21 09:53:00
3:53 AM,35.1,21.9,59,30.07,10.0,SW,10.4,-,N/A,,Scattered Clouds,230,2013-03-21 10:53:00
4:53 AM,35.1,23.0,61,30.08,10.0,WSW,17.3,-,N/A,,Clear,250,2013-03-21 11:53:00
5:53 AM,34.0,21.9,61,30.09,10.0,SSW,12.7,-,N/A,,Scattered Clouds,210,2013-03-21 12:53:00
6:53 AM,33.1,21.9,64,30.10,10.0,South,10.4,-,N/A,,Overcast,190,2013-03-21 13:53:00
7:53 AM,35.1,23.0,61,30.11,10.0,SSW,8.1,-,N/A,,Overcast,200,2013-03-21 14:53:00
8:53 AM,37.9,24.1,57,30.12,10.0,SW,19.6,-,N/A,,Overcast,230,2013-03-21 15:53:00
9:53 AM,39.0,26.1,60,30.13,10.0,SW,17.3,-,N/A,,Overcast,230,2013-03-21 16:53:00
10:53 AM,42.1,26.1,53,30.12,10.0,West,19.6,33.4,N/A,,Mostly Cloudy,260,2013-03-21 17:53:00
11:53 AM,44.1,26.1,49,30.12,10.0,WSW,25.3,39.1,N/A,,Scattered Clouds,250,2013-03-21 18:53:00
12:53 PM,45.0,25.0,46,30.11,10.0,West,27.6,39.1,N/A,,Mostly Cloudy,260,2013-03-21 19:53:00
1:53 PM,46.9,27.0,46,30.09,10.0,West,29.9,38.0,N/A,,Clear,270,2013-03-21 20:53:00
2:53 PM,46.9,23.0,39,30.06,10.0,West,32.2,41.4,N/A,,Clear,260,2013-03-21 21:53:00
3:53 PM,48.0,23.0,37,30.06,10.0,West,26.5,36.8,N/A,,Clear,280,2013-03-21 22:53:00
4:53 PM,46.0,21.9,39,30.05,10.0,West,28.8,38.0,N/A,,Clear,270,2013-03-21 23:53:00
5:53 PM,45.0,23.0,42,30.05,10.0,West,28.8,35.7,N/A,,Clear,270,2013-03-22 00:53:00
6:53 PM,41.0,24.1,51,30.07,10.0,West,24.2,29.9,N/A,,Clear,260,2013-03-22 01:53:00
7:53 PM,39.0,25.0,57,30.08,10.0,West,26.5,36.8,N/A,,Mostly Cloudy,260,2013-03-22 02:53:00
8:53 PM,37.0,26.1,65,30.10,10.0,West,31.1,39.1,N/A,,Mostly Cloudy,260,2013-03-22 03:53:00
9:53 PM,35.6,26.6,70,30.09,10.0,West,26.5,32.2,N/A,,Scattered Clouds,260,2013-03-22 04:53:00
10:53 PM,36.0,26.1,67,30.10,10.0,West,28.8,38.0,N/A,,Mostly Cloudy,260,2013-03-22 05:53:00
11:53 PM,35.1,26.1,70,30.10,10.0,West,26.5,33.4,N/A,,Mostly Cloudy,260,2013-03-22 06:53:00